Regional Weather Roundup
Issued by NWS

Home | Current Version | Previous Version | Graphics & Text | Print | Product List | Glossary On
Versions: 1 2 3 4 5 6 7 8 9 10 11 12 13 14 15 16 17 18 19 20 21 22 23 24 25 26 27 28 29 30 31 32 33 34 35 36 37 38 39 40 41 42 43 44 45 46 47 48 49 50
000
ASUS43 KMPX 161801
RWRMN
WEATHER ROUNDUP FOR MINNESOTA
NATIONAL WEATHER SERVICE TWIN CITIES/CHANHASSEN MN
100 PM CDT WED APR 16 2014


NOTE: "FAIR" INDICATES FEW OR NO CLOUDS BELOW 12,000 FEET WITH NO
SIGNIFICANT WEATHER AND/OR OBSTRUCTIONS TO VISIBILITY. N/A MEANS
CURRENT SKY AND/OR WEATHER CONDITIONS ARE NOT AVAILABLE.

MNZ060>063-068>070-161900-
   Twin Cities Metro

CITY           SKY/WX    TMP DP  RH WIND       PRES   REMARKS
TWIN CITIES    CLOUDY    35  27  72 E16       29.89F WCI  25
6HR MIN TEMP:  32; 6HR MAX TEMP:  36; 6HR PCP: TRACE;

ST PAUL        CLOUDY    35  27  72 E9        29.93F WCI  28
CRYSTAL        CLOUDY    33  26  75 E10       29.90F WCI  25
EDEN PRAIRIE   CLOUDY    38  27  64 E13       29.87F
6HR MIN TEMP:  33; 6HR MAX TEMP:  38; 6HR PCP: TRACE;

LAKEVILLE      FAIR      41  27  56 E13       29.86F
SOUTH ST PAUL  FAIR      39  27  63 E8        29.91F
LAKE ELMO      PTSUNNY   34  28  80 E14G22    29.93F WCI  24
$$
MNZ001>005-007-008-013>017-022>024-027-028-161900-
   Northwest Minnesota

CITY           SKY/WX    TMP DP  RH WIND       PRES   REMARKS
BEMIDJI        CLOUDY    34  15  45 E15G23    30.08F WCI  24
HALLOCK        CLOUDY    36   9  32 NE14G20   30.19F
ROSEAU         FAIR      34   9  35 NE20      30.20S WCI  22
WARROAD        FAIR      30  10  43 NE18      30.21F WCI  18
THIEF RVR FALL FAIR      36   7  30 NE14G23   30.12F
CROOKSTON      FAIR      37   9  30 E15G23    30.12S
FOSSTON        PTSUNNY   37  18  44 E13G22    30.08R
DETROIT LAKES  PTSUNNY   32  23  69 E20G26    30.03R WCI  20
MOORHEAD       PTSUNNY   32  27  80 E17       30.06R WCI  21
PARK RAPIDS    CLOUDY    28  21  75 E16G28    30.04R WCI  16
$$
MNZ006-009>011-018-025>026-161900-
   North Central Minnesota

CITY           SKY/WX    TMP DP  RH WIND       PRES   REMARKS
BAUDETTE       FAIR      34   6  31 NE14      30.18S WCI  25
FLAG ISLAND    FAIR      28   3  34 N10       30.22S WCI  19
INTL FALLS     FAIR      33   6  32 NE8       30.18F WCI  26
6HR MIN TEMP:  17; 6HR MAX TEMP:  33;

WASKISH        CLOUDY    37   9  30 NE15G22   30.13F
BIG FORK       PTSUNNY   34  10  37 NE12G17   30.12F WCI  25
LONGVILLE      LGT SNOW  28  21  74 NE8G24    30.07S WCI  20
GRAND RAPIDS   CLOUDY    27  19  74 E12G18    30.10F WCI  16
CRANE LAKE     FAIR      37  16  41 NE5       30.19F
ORR            CLOUDY    36   0  21 E7        30.13S
COOK           CLOUDY    34  10  37 E6        30.15S WCI  29
$$
MNZ012-019>021-037-161900-
   Northeast Minnesota

CITY           SKY/WX    TMP DP  RH WIND       PRES   REMARKS
DULUTH         LGT SNOW  26  22  84 E20G33    30.10F VSB 3/4 WCI  12
6HR MIN TEMP:  25; 6HR MAX TEMP:  27; 6HR PCP:  0.04;

ELY            FAIR      30   7  37 E12       30.16S WCI  21
HIBBING        FLURRIES  29  19  66 E14G23    30.13F WCI  18
EVELETH        MIX PCPN  28  18  64 E9G20     30.15S WCI  20
DULUTH HARBOR  LGT SNOW  28  27  93 NE20      30.15F VSB 1   WCI  15
TWO HARBORS    LGT SNOW  27  19  74 E14G22    30.15F WCI  15
SILVER BAY     LGT SNOW  27  21  80 E9G18     30.18F WCI  17
GRAND MARAIS     N/A     30  19  63 E14       30.27S WCI  19
G MARAIS ARPRT FAIR      27   1  33 E8        30.20S WCI  18
$$
MNZ029>031-032-039>041-046>048-054>057-064-161900-
   West Central Minnesota

CITY           SKY/WX    TMP DP  RH WIND       PRES   REMARKS
FERGUS FALLS   FAIR      30  21  69 E21G30    29.96S WCI  17
WHEATON        LGT SNOW  32  28  86 NE15G23   29.97S WCI  22
MORRIS         SNOW      28  27  93 NE22      29.91S VSB 1/2 WCI  15
ALEXANDRIA     SNOW      27  24  89 NE20G29   29.94R VSB 1/4 WCI  13
ELBOW LAKE     LGT SNOW  28  26  90 E16G25    29.95S VSB 1   WCI  17
WADENA         LGT SNOW  27  23  86 NE13G20   30.00S VSB 1   WCI  16
GLENWOOD       HVY SNOW  27  27 100 NE23      29.92R VSB 1/4 WCI  12
APPLETON       LGT SNOW  30  28  93 NE22G28   29.88S VSB 3/4 WCI  17
BENSON         SNOW      28  27  93 E18G24    29.90R VSB 1/2 WCI  16
ORTONVILLE     CLOUDY    28  27  93 MISG      29.89S
MADISON        LGT SNOW  34  32  93 NE18      29.86R VSB 3/4 WCI  23
WILLMAR        SNOW      30  28  93 NE17G26   29.87R VSB 1/4 WCI  18
$$
MNZ033>034-036-042>043-049>051-058-059-161900-
   Central Minnesota

CITY           SKY/WX    TMP DP  RH WIND       PRES   REMARKS
ST CLOUD       SNOW      29  26  89 NE14G22   29.92F VSB 1/4 WCI  18
6HR MIN TEMP:  29; 6HR MAX TEMP:  30; 6HR PCP:  0.33;

SAUK CENTRE    SNOW      27  25  93 NE17G24   29.93R VSB 1/2 WCI  14
PAYNESVILLE    SNOW      28  27  94 NE17      29.89S VSB 1/4 WCI  16
AITKIN         LGT SNOW  30  25  80 NE12G18   30.03S VSB 1   WCI  21
PINE RIVER     LGT SNOW  28  23  80 E14G21    30.08R WCI  17
BRAINERD       HVY SNOW  32  24  72 NE12G21   30.02S VSB 1/4 WCI  23
STAPLES        LGT SNOW  27  25  93 NE10G18   30.00F VSB 3/4 WCI  17
LONG PRAIRIE   CLOUDY    27  25  93 NE15G23   29.95S VSB 1/2 WCI  15
LITTLE FALLS   SNOW      28  27  93 NE8G20    29.97S VSB 1/4 WCI  20
LITCHFIELD     HVY SNOW  30  30 100 E10       29.88R VSB 1/4 WCI  21
BUFFALO        LGT SNOW  31  28  90 NE14G21   29.90F VSB 1   WCI  21
MAPLE LAKE     SNOW      31  30  95 E17       29.90F VSB 1/2 WCI  20
$$
MNZ037-044-045-052-053-161900-
   East Central Minnesota

CITY           SKY/WX    TMP DP  RH WIND       PRES   REMARKS
PRINCETON      SNOW      30  27  86 NE13      29.95F VSB 1/4 WCI  20
MORA           SNOW      28  27  93 E10G18    30.01F VSB 1/2 WCI  19
CAMBRIDGE      SNOW      30  25  80 NE10      29.95S VSB 1/4 WCI  21
RUSH CITY      LGT SNOW  29  27  92 NE10      29.99F WCI  20
MOOSE LAKE     SNOW      28  27  93 NE8       30.05S VSB 1/2 WCI  20
HINCKLEY       SNOW      30  28  93 NE12G20   30.02F VSB 1/4 WCI  21
CLOQUET        LGT SNOW  27  25  93 E16G24    30.08S VSB 3/4 WCI  14
MCGREGOR       CLOUDY    30  27  86 E12G21    30.07R VSB 1   WCI  21
$$
MNZ071>073-080-081-089-090-097-098-161900-
   Southwest Minnesota

CITY           SKY/WX    TMP DP  RH WIND       PRES   REMARKS
MONTEVIDEO     SNOW      32  30  93 E22       29.85S VSB 1/2 WCI  19
GRANITE FALLS  SNOW      33  31  94 NE12      29.83S VSB 1/2 WCI  24
CANBY          SNOW      32  31  96 N10       29.84R VSB 1/4 WCI  24
MARSHALL       CLOUDY    34  28  80 E17       29.77S WCI  23
REDWOOD FALLS  LGT SNOW  33  32  96 VRB6      29.82R VSB 3/4 WCI  28
OLIVIA         HVY SNOW  34  32  93 E13G18    29.82R VSB 1/4 WCI  25
PIPESTONE      LGT RAIN  36  34  93 NE15      29.70R
WINDOM         FAIR      50  28  43 S13G23    29.70F
WORTHINGTON    PTSUNNY   46  28  49 S14       29.69F
JACKSON        CLOUDY    50  28  43 S18G24    29.71F
TRACY          SNOW      33  32  96 NE14G23   29.77R VSB 1/4 WCI  23
SLAYTON        RAIN      36  35  96 N17       29.73R
$$
MNZ065>067-074>077-082>085-091>093-161900-
   South Central Minnesota

CITY           SKY/WX    TMP DP  RH WIND       PRES   REMARKS
MANKATO        CLOUDY    45  30  57 SE13      29.81S
NEW ULM        FAIR      45  30  57 SE12      29.77F
ST JAMES       FAIR      52  32  46 SE13      29.75F
FAIRMONT       PTSUNNY   52  30  43 S25G33    29.74F
GLENCOE        CLOUDY    38  27  64 E13       29.83F
FARIBAULT      FAIR      46  27  46 E12       29.84F
OWATONNA       FAIR      46  30  53 SE17G25   29.83F
WASECA         PTSUNNY   45  32  61 SE14G21   29.82F
ALBERT LEA     FAIR      48  32  53 SE16G25   29.80F
$$
MNZ078>079-086>088-094>096-161900-
   Southeast Minnesota

CITY           SKY/WX    TMP DP  RH WIND       PRES   REMARKS
ROCHESTER      FAIR      47  31  53 S18G31    29.86S
6HR MIN TEMP:  33; 6HR MAX TEMP:  47; 6HR PCP: TRACE;

RED WING       FAIR      45  23  42 E14G21    29.90F
STANTON        CLOUDY    45  27  49 SE10G20   29.86F
DODGE CENTER   FAIR      46  30  53 S16G23    29.85F
WINONA         FAIR      54  30  40 S13G23    29.93S
AUSTIN         FAIR      48  32  53 S14G21    29.83F
PRESTON        FAIR      48  32  53 S23G32    29.89S
$$
ABBREVIATIONS USED IN REMARKS
   TC - TEMPERATURES IN CELSIUS
  WCI - WIND CHILL INDEX
   HX - HEAT INDEX
  VSB - VISIBILITY
$$



USA.gov is the U.S. government's official web portal to all federal, state and local government web resources and services.